Voltar ao catálogo

STARLINK-34587

AtivoComunicaçõesVLEO
NORAD 64735·PAYLOAD·🇺🇸 United States

Lançado Jul 2, 2025 de Cape Canaveral Space Force Station

Loading…

Próximas Passagens (próximas 24 horas)

TLE

AtualizadoSource: CelesTrak SupGP

Época: Sep 15, 2026, 03:02 UTC

1 64735C 25144M   26258.12687500  .00039055  00000+0  11538-2 0  2582
2 64735  53.1609  20.6636 0001200  90.7550 215.7028 15.34372469    13

Acompanhe STARLINK-34587 em tempo real com AllMySat

Download on the App Store